Weather History for Val-d'Or, QC

Change the Weather History Date:

Sunday, February 10, 2013

  Actual Average Record
Temperature  
Mean Temperature 8 °F -  
Max Temperature 25 °F 15 °F 30 °F (2009)
Min Temperature -9 °F -5 °F -29 °F (2003)
Degree Days  
Heating Degree Days 57    
Moisture  
Dew Point 6 °F    
Average Humidity 80    
Maximum Humidity 93    
Minimum Humidity 62    
Precipitation  
Precipitation 0.00 in - - ()
Sea Level Pressure  
Sea Level Pressure 30.27 in    
Wind  
Wind Speed 7 mph ()    
Max Wind Speed 13 mph    
Max Gust Speed 18 mph    
Visibility 13.3 miles    
Events      
Averages and records for this station are not official NWS values.
T = Trace of Precipitation, MM = Missing Value Source: Averaged Metar Reports

Daily Weather History Graph

Daily Weather History Graph

Search for Another Location

Airport:

Trip Planner

Search our weather history database for the weather conditions in past years. The results will help you decide how hot, cold, wet, or windy it might be!

Date:

Astronomy

Feb. 10, 2013 Rise Set
Actual Time 7:25 AM EST 5:26 PM EST
Civil Twilight 6:53 AM EST 5:58 PM EST
Nautical Twilight 6:16 AM EST 6:35 PM EST
Astronomical Twilight 5:40 AM EST 7:11 PM EST
Moon 7:08 AM EST (2/10) 6:22 PM EST (2/10)
Length of Visible Light 11h 05m
Length of Day
10h 00m
New Moon, 0% of the Moon is Illuminated
Feb 10
New Moon
Feb 17
First Quarter
Feb 25
Full
Mar 4
Last Quarter
Mar 11
New

Hourly Weather History & Observations

Time (EST) Temp. Windchill Dew Point Humidity Pressure Visibility Wind Dir Wind Speed Gust Speed Precip Events Conditions
12:00 AM -0.4 °F -15.7 °F -4.0 °F 85% 30.37 in 9.0 mi South 9.2 mph - N/A   Clear
1:00 AM -8 °F - -12 °F 74% 30.35 in - Calm Calm - -  
1:00 AM -5.8 °F -16.7 °F -9.4 °F 84% 30.37 in 9.0 mi South 4.6 mph - N/A   Clear
2:00 AM -2.2 °F -15.6 °F -5.8 °F 85% 30.36 in 9.0 mi South 6.9 mph - N/A   Mostly Cloudy
3:00 AM 3.2 °F -9.1 °F -0.4 °F 85% 30.35 in 9.0 mi SSW 6.9 mph - N/A   Overcast
4:00 AM 3 °F - -1 °F 73% 30.33 in - SSW 5.8 mph - -  
4:00 AM 3.2 °F -9.1 °F -0.4 °F 85% 30.35 in 9.0 mi SSW 6.9 mph - N/A   Overcast
5:00 AM 1.4 °F -9.9 °F -2.2 °F 85% 30.35 in 9.0 mi SSW 5.8 mph - N/A   Clear
6:00 AM 3.2 °F -9.1 °F -2.2 °F 78% 30.35 in 15.0 mi South 6.9 mph - N/A   Clear
7:00 AM 2 °F - -3 °F 69% 30.35 in - Calm Calm - -  
7:00 AM 3.2 °F -9.1 °F -2.2 °F 78% 30.36 in 15.0 mi SSW 6.9 mph - N/A   Mostly Cloudy
8:00 AM 3.2 °F -10.3 °F -0.4 °F 85% 30.36 in 15.0 mi South 8.1 mph - N/A   Mostly Cloudy
9:00 AM 6.8 °F -7.8 °F 3.2 °F 85% 30.35 in 15.0 mi South 10.4 mph - N/A   Overcast
9:41 AM 8.6 °F -4.7 °F 6.8 °F 92% 30.35 in 15.0 mi South 9.2 mph - N/A   Overcast
10:00 AM 11 °F - 6 °F 71% 30.32 in - South 9.2 mph - -  
10:00 AM 12.2 °F -1.8 °F 6.8 °F 79% 30.34 in 15.0 mi South 11.5 mph - N/A   Overcast
11:00 AM 14.0 °F 0.5 °F 12.2 °F 93% 30.33 in 15.0 mi South 11.5 mph 18.4 mph N/A   Mostly Cloudy
12:00 PM 19.4 °F 6.6 °F 15.8 °F 86% 30.30 in 15.0 mi South 12.7 mph - N/A   Scattered Clouds
1:00 PM 21 °F - 15 °F 69% 30.24 in - Calm Calm - -  
1:00 PM 21.2 °F 10.9 °F 15.8 °F 80% 30.26 in 15.0 mi SSE 9.2 mph - N/A   Partly Cloudy
2:00 PM 24.8 °F 16.1 °F 17.6 °F 74% 30.24 in 15.0 mi South 8.1 mph - N/A   Partly Cloudy
3:00 PM 24.8 °F 16.1 °F 17.6 °F 74% 30.23 in 15.0 mi South 8.1 mph - N/A   Partly Cloudy
4:00 PM 23 °F - 15 °F 62% 30.20 in - SSE 10.4 mph - -  
4:00 PM 24.8 °F 14.0 °F 17.6 °F 74% 30.22 in 15.0 mi SSE 11.5 mph - N/A   Partly Cloudy
5:00 PM 19.4 °F 9.5 °F 15.8 °F 86% 30.22 in 15.0 mi SSE 8.1 mph - N/A   Partly Cloudy
6:00 PM 17.6 °F 10.7 °F 14.0 °F 86% 30.20 in 15.0 mi SSE 4.6 mph - N/A   Scattered Clouds
7:00 PM 15 °F - 13 °F 85% 30.16 in - Calm Calm - -  
7:00 PM 17.6 °F 10.7 °F 15.8 °F 93% 30.18 in 15.0 mi SSE 4.6 mph - N/A   Scattered Clouds
8:00 PM 14.0 °F 2.9 °F 12.2 °F 93% 30.17 in 15.0 mi South 8.1 mph - N/A   Partly Cloudy
9:00 PM 14.0 °F 1.2 °F 8.6 °F 79% 30.15 in 15.0 mi South 10.4 mph - N/A   Clear
10:00 PM 13 °F - 8 °F 69% 30.08 in - SSE 9.2 mph - -  
10:00 PM 14.0 °F 1.2 °F 8.6 °F 79% 30.11 in 15.0 mi South 10.4 mph - N/A   Mostly Cloudy
11:00 PM 14.0 °F 0.5 °F 8.6 °F 79% 30.06 in 9.0 mi SSE 11.5 mph - N/A   Mostly Cloudy